Location: Navajo
(48.7922°N, 105.0603°W)
Time: 18:09:50
(UTC+00:00)

Tiangong - Visible Passes

Search period start: 24 January 2022 00:00
Search period end: 03 February 2022 00:00
Orbit: 383 x 386 km, 41.5° (Epoch: 23 January)

Date Brightness Start Highest point End Pass type
(mag) Time Alt. Az. Time Alt. Az. Time Alt. Az.
28 Jan 4.0 02:05:52 10° S 02:05:55 10° S 02:05:55 10° S visible
30 Jan 3.2 01:42:16 10° SSW 01:44:24 17° SSE 01:44:26 17° SSE visible
31 Jan 3.6 00:43:12 10° S 00:44:47 13° SSE 00:46:24 10° SE visible
31 Jan 3.6 02:18:28 10° SW 02:19:42 17° SSW 02:19:42 17° SSW visible
01 Feb 3.1 01:18:53 10° SW 01:21:18 20° S 01:22:44 15° SE visible
02 Feb 3.0 01:55:20 10° SW 01:57:51 21° S 01:57:57 21° S visible
